Regional Weather Roundup
Issued by NWS Sioux Falls, SD

Home | Current Version | Previous Version | Graphics & Text | Print | Product List | Glossary On
Versions: 1 2 3 4 5 6 7 8 9 10 11 12 13 14 15 16 17 18 19 20 21 22 23 24 25 26 27 28 29 30 31 32 33 34 35 36 37 38 39 40 41 42 43 44 45 46 47 48 49 50
000
ASUS43 KFSD 041210
RWRFSD

WEATHER ROUNDUP FOR SE SOUTH DAKOTA/SW MINNESOTA/NW IOWA
NATIONAL WEATHER SERVICE SIOUX FALLS SD
600 AM CST SUN DEC 04 2016

NOTE: "FAIR" INDICATES FEW OR NO CLOUDS BELOW 12,000 FEET WITH NO
SIGNIFICANT WEATHER AND OR OBSTRUCTIONS TO VISIBILITY.


SDZ038>040-050-052>070-041300-
SOUTHEAST SOUTH DAKOTA

CITY           SKY/WX    TMP DP  RH WIND       PRES   REMARKS
BROOKINGS      CLOUDY    32  30  92 SW14      29.84S WCI  22
CHAMBERLAIN    CLEAR     31  26  83 W7        29.88S WCI  24
6HR MIN TEMP:  25; 6HR MAX TEMP:  31;

HURON          CLEAR     27  24  89 SW8       29.84F WCI  19
6HR MIN TEMP:  27; 6HR MAX TEMP:  32;

MADISON        CLOUDY    30  30 100 SW10      29.85F WCI  21
MITCHELL       CLEAR     31  25  78 W10       29.88F WCI  22
6HR MIN TEMP:  29; 6HR MAX TEMP:  34;

SIOUX FALLS    CLOUDY    33  32  96 SW10      29.88S WCI  25
6HR MIN TEMP:  33; 6HR MAX TEMP:  35;

WINNER         FAIR      34  25  69 W8        29.89S WCI  27
YANKTON          N/A     27  25  93 CALM      29.90S VSB 1/2
$$

MNZ071-072-080-081-089-090-097-098-041300-
SOUTHWEST MINNESOTA

CITY           SKY/WX    TMP DP  RH WIND       PRES   REMARKS
FAIRMONT       CLOUDY    33  32  96 S12       29.92F FOG     WCI  24
JACKSON        CLOUDY    32  32 100 SW10      29.90F FOG     WCI  24
LUVERNE        CLOUDY    32  30  93 SW7       29.89F FOG     WCI  26
MARSHALL       PTCLDY    33  30  88 S9        29.86F WCI  25
6HR MIN TEMP:  33; 6HR MAX TEMP:  35;

MONTEVIDEO     CLOUDY    34  34 100 S8        29.87F WCI  27
PIPESTONE      CLOUDY    34  32  93 SW9       29.85S WCI  26
REDWOOD FALLS  CLOUDY    35  32  88 S8        29.89F WCI  29
TRACY          CLOUDY    35  32  90 S8        29.86F WCI  28
WINDOM         CLOUDY    34  34 100 CALM      29.89F FOG
WORTHINGTON    CLOUDY    32  31  96 SW9       29.88F WCI  24
$$

IAZ001>003-012>014-020>022-031-032-NEZ013-014-SDZ071-041300-
NORTHWEST IOWA

CITY           SKY/WX    TMP DP  RH WIND       PRES   REMARKS
CHEROKEE       CLOUDY    32  32 100 SW9       29.92F FOG     WCI  25
DENISON        CLOUDY    32  32 100 W5        29.93F FOG     WCI  27
ESTHERVILLE    FOG       32  32 100 S10       29.91F VSB 1   WCI  24
LE MARS        CLOUDY    34  32  93 S8        29.93F WCI  27
ORANGE CITY    CLOUDY    34  34 100 S7        29.90F FOG     WCI  28
SHELDON        CLOUDY    32  32 100 S7        29.89F WCI  26
SIOUX CITY     CLOUDY    35  32  88 S6        29.94F
6HR MIN TEMP:  35; 6HR MAX TEMP:  36;

SPENCER        CLOUDY    34  33  96 SW8       29.91F FOG     WCI  27
6HR MIN TEMP:  33; 6HR MAX TEMP:  34; 6HR PCP: TRACE;

STORM LAKE     CLOUDY    32  32 100 SW8       29.92F FOG     WCI  25
$$

ABBREVIATIONS USED IN REMARKS
   TC - TEMPERATURE IN CELSIUS
  WCI - WIND CHILL INDEX
   HX - HEAT INDEX
  VSB - VISIBILITY




USA.gov is the U.S. government's official web portal to all federal, state and local government web resources and services.